CW5439 Weather Reports


Display with metric or nautical units.
time (UTC)temp
F
wind
direction
speed
MPH
gust
MPH
rain 1hr
in
rain 24hr
in
rain mn
in
humidity
%
barometer
mb
20260905183705 57 275 2.0 8.0 0.00 0.00 0.00 78 1020.2
20260905182705 58 256 2.0 8.0 0.00 0.00 0.00 78 1020.2
20260905182206 58 206 2.0 8.0 0.00 0.00 0.00 78 1020.2
20260905181705 58 211 2.0 8.0 0.00 0.00 0.00 77 1020.2
20260905180205 58 219 2.0 8.0 0.00 0.00 0.00 77 1020.1
20260905175705 58 244 3.0 8.0 0.00 0.00 0.00 77 1020.1
20260905175205 58 224 3.0 8.0 0.00 0.00 0.00 77 1020.1
20260905174704 58 213 2.0 9.0 0.00 0.00 0.00 77 1020.1
20260905174205 58 245 3.0 9.0 0.00 0.00 0.00 76 1020.0
20260905172705 59 220 3.0 11.0 0.00 0.00 0.00 76 1019.8
20260905171705 59 205 3.0 11.0 0.00 0.00 0.00 76 1019.6
20260905171205 59 190 3.0 8.0 0.00 0.00 0.00 76 1019.6
20260905170705 60 244 3.0 10.0 0.00 0.00 0.00 76 1019.7
20260905165704 60 215 3.0 11.0 0.00 0.00 0.00 75 1019.5
20260905165205 60 229 3.0 15.0 0.00 0.00 0.00 74 1019.5
20260905164205 60 265 4.0 15.0 0.00 0.00 0.00 73 1019.4
20260905162705 61 257 4.0 9.0 0.00 0.00 0.00 72 1019.4
20260905162205 61 224 4.0 13.0 0.00 0.00 0.00 72 1019.3
20260905161705 61 282 4.0 13.0 0.00 0.00 0.00 71 1019.3
20260905160704 61 237 5.0 12.0 0.00 0.00 0.00 70 1019.2
20260905160205 61 270 5.0 12.0 0.00 0.00 0.00 71 1019.2
20260905155705 61 299 5.0 11.0 0.00 0.00 0.00 71 1019.1
20260905154705 61 274 5.0 11.0 0.00 0.00 0.00 71 1019.2
20260905154205 62 209 5.0 13.0 0.00 0.00 0.00 69 1019.2
20260905153705 62 207 5.0 13.0 0.00 0.00 0.00 69 1019.2
20260905153205 62 256 5.0 13.0 0.00 0.00 0.00 69 1019.1
20260905152705 63 211 5.0 11.0 0.00 0.00 0.00 69 1019.0
20260905152205 63 244 5.0 14.0 0.00 0.00 0.00 69 1018.9
20260905151705 63 261 5.0 18.0 0.00 0.00 0.00 69 1018.9
20260905151205 63 207 5.0 18.0 0.00 0.00 0.00 69 1018.8
20260905150705 63 258 6.0 18.0 0.00 0.00 0.00 68 1018.8
20260905150205 63 240 6.0 17.0 0.00 0.00 0.00 68 1018.8
20260905145705 63 235 5.0 13.0 0.00 0.00 0.00 68 1018.7
20260905144705 63 278 5.0 15.0 0.00 0.00 0.00 69 1018.8
20260905144205 63 300 6.0 15.0 0.00 0.00 0.00 69 1018.9
20260905143705 63 258 6.0 15.0 0.00 0.00 0.00 70 1018.8
20260905143205 63 271 7.0 15.0 0.00 0.00 0.00 69 1018.9
20260905142705 63 303 7.0 15.0 0.00 0.00 0.00 69 1018.9
20260905142206 63 211 7.0 15.0 0.00 0.00 0.00 69 1018.9
20260905141705 63 275 7.0 15.0 0.00 0.00 0.00 70 1018.9
20260905140732 62 289 5.0 14.0 0.00 0.00 0.00 71 1018.8
20260905140205 62 228 5.0 14.0 0.00 0.00 0.00 72 1018.9
20260905135705 62 263 4.0 14.0 0.00 0.00 0.00 72 1018.9
20260905135206 62 286 5.0 14.0 0.00 0.00 0.00 72 1018.9
20260905134704 62 269 5.0 14.0 0.00 0.00 0.00 72 1018.8
20260905134205 62 232 5.0 15.0 0.00 0.00 0.00 73 1018.9
20260905133704 62 244 6.0 15.0 0.00 0.00 0.00 73 1018.8
20260905133208 61 267 5.0 13.0 0.00 0.00 0.00 73 1018.9
20260905132704 61 225 4.0 13.0 0.00 0.00 0.00 73 1018.9
20260905132205 61 240 4.0 17.0 0.00 0.00 0.00 73 1018.9
20260905131704 61 196 6.0 17.0 0.00 0.00 0.00 72 1018.8
20260905131205 61 286 7.0 17.0 0.00 0.00 0.00 71 1018.8
20260905130705 61 274 6.0 17.0 0.00 0.00 0.00 71 1018.8
20260905130205 61 263 6.0 17.0 0.00 0.00 0.00 71 1018.8
20260905125704 61 257 8.0 17.0 0.00 0.00 0.00 70 1018.8
20260905124705 61 323 6.0 18.0 0.00 0.00 0.00 69 1018.5
20260905124206 61 296 6.0 18.0 0.00 0.00 0.00 69 1018.5
20260905123705 61 288 6.0 18.0 0.00 0.00 0.00 68 1018.6
20260905123204 62 260 6.0 16.0 0.00 0.00 0.00 67 1018.4
20260905122705 62 205 6.0 15.0 0.00 0.00 0.00 66 1018.3
20260905122206 63 242 5.0 14.0 0.00 0.00 0.00 63 1018.2
20260905121205 64 235 5.0 15.0 0.00 0.00 0.00 64 1018.2
20260905120707 64 289 6.0 16.0 0.00 0.00 0.00 65 1018.1
20260905115206 64 275 7.0 16.0 0.00 0.00 0.00 64 1018.0
20260905114704 64 264 7.0 16.0 0.00 0.00 0.00 62 1017.9
20260905114205 64 272 7.0 14.0 0.00 0.00 0.00 63 1017.9
20260905113705 65 291 7.0 14.0 0.00 0.00 0.00 66 1017.8
20260905113204 64 255 6.0 14.0 0.00 0.00 0.00 65 1017.8
20260905112206 63 283 6.0 17.0 0.00 0.00 0.00 68 1017.6
20260905111705 62 244 7.0 17.0 0.00 0.00 0.00 67 1017.6
20260905111205 62 250 8.0 15.0 0.00 0.00 0.00 67 1017.5
20260905110707 63 256 7.0 15.0 0.00 0.00 0.00 65 1017.6
20260905105705 63 206 6.0 14.0 0.00 0.01 0.00 68 1017.5
20260905105209 64 296 6.0 13.0 0.00 0.01 0.00 66 1017.5
20260905104705 63 269 5.0 13.0 0.00 0.01 0.00 65 1017.4
20260905104205 64 224 6.0 13.0 0.00 0.01 0.00 66 1017.4
20260905103705 62 273 7.0 16.0 0.00 0.01 0.00 68 1017.4
20260905103205 62 250 7.0 17.0 0.00 0.01 0.00 66 1017.2
20260905102705 62 247 8.0 17.0 0.00 0.01 0.00 67 1017.1
20260905102206 62 256 8.0 18.0 0.00 0.01 0.00 67 1017.0
20260905101705 60 284 8.0 18.0 0.00 0.01 0.00 67 1016.9
20260905101205 61 274 7.0 17.0 0.00 0.01 0.00 68 1016.9
20260905100705 61 217 7.0 21.0 0.00 0.01 0.00 68 1016.8
20260905100205 61 259 8.0 21.0 0.00 0.01 0.00 68 1016.8
20260905095705 60 232 7.0 21.0 0.00 0.01 0.00 69 1016.8
20260905095205 59 293 5.0 15.0 0.00 0.01 0.00 73 1016.8
20260905094705 58 256 6.0 15.0 0.00 0.01 0.00 74 1016.7
20260905094205 57 236 7.0 15.0 0.00 0.01 0.00 74 1016.5
20260905093705 57 258 6.0 18.0 0.00 0.01 0.00 74 1016.6
20260905093226 57 248 7.0 18.0 0.00 0.01 0.00 74 1016.6
20260905092705 57 252 8.0 18.0 0.00 0.01 0.00 75 1016.4
20260905092206 57 290 8.0 19.0 0.00 0.01 0.00 75 1016.4
20260905091705 56 234 8.0 19.0 0.00 0.01 0.00 77 1016.4
20260905091205 56 279 6.0 19.0 0.00 0.01 0.00 78 1016.2
20260905090705 56 273 6.0 15.0 0.00 0.01 0.00 80 1016.1
20260905090205 56 255 6.0 14.0 0.00 0.01 0.00 80 1016.1
20260905085705 56 277 5.0 13.0 0.00 0.01 0.00 81 1015.9
20260905085205 56 284 5.0 13.0 0.00 0.01 0.00 81 1015.9
20260905084705 56 229 5.0 15.0 0.00 0.01 0.00 82 1015.8
20260905084205 56 263 5.0 15.0 0.00 0.01 0.00 82 1015.7
20260905083205 55 263 6.0 15.0 0.00 0.01 0.00 82 1015.5
20260905082705 55 237 6.0 15.0 0.00 0.01 0.00 82 1015.4
20260905082231 55 275 6.0 15.0 0.00 0.01 0.00 82 1015.3
20260905081705 55 231 6.0 16.0 0.00 0.01 0.00 82 1015.1
20260905075705 55 245 6.0 15.0 0.00 0.01 0.00 82 1014.8
20260905075206 55 252 6.0 15.0 0.00 0.01 0.00 82 1014.8
20260905074705 55 215 6.0 15.0 0.00 0.01 0.00 82 1014.8
20260905073705 55 272 6.0 18.0 0.00 0.01 0.00 82 1014.8
20260905073206 55 239 6.0 18.0 0.00 0.01 0.00 82 1014.8
20260905072705 55 236 6.0 18.0 0.00 0.01 0.00 82 1014.8
20260905072205 55 223 6.0 16.0 0.00 0.01 0.00 82 1014.7
20260905071705 55 212 6.0 16.0 0.00 0.01 0.00 83 1014.6
20260905071206 55 212 6.0 15.0 0.00 0.01 0.00 83 1014.5
20260905070705 54 250 6.0 17.0 0.00 0.01 0.00 84 1014.4
20260905065705 53 252 7.0 15.0 0.00 0.01 0.00 85 1014.3
20260905064731 52 261 7.0 15.0 0.00 0.01 0.00 86 1014.1
20260905064205 51 207 6.0 12.0 0.00 0.01 0.00 86 1014.0
20260905063205 51 226 5.0 12.0 0.00 0.01 0.00 86 1013.6
20260905062707 51 211 6.0 12.0 0.00 0.01 0.00 86 1013.5
20260905062205 51 235 6.0 15.0 0.00 0.01 0.00 86 1013.5
20260905061704 51 269 7.0 18.0 0.00 0.01 0.00 87 1013.4
20260905061205 51 278 8.0 18.0 0.00 0.01 0.00 87 1013.2
20260905060205 51 215 7.0 15.0 0.00 0.01 0.00 87 1013.0
20260905055705 51 219 7.0 15.0 0.00 0.01 0.00 87 1012.9
20260905055205 51 215 7.0 15.0 0.00 0.01 0.00 87 1012.9
20260905054705 51 252 7.0 15.0 0.00 0.01 0.00 87 1013.0
20260905054205 51 196 6.0 17.0 0.00 0.01 0.00 87 1013.0
20260905053705 51 263 7.0 17.0 0.00 0.01 0.00 87 1013.1
20260905053205 51 207 8.0 17.0 0.00 0.01 0.00 87 1013.0
20260905052705 51 201 7.0 15.0 0.00 0.01 0.00 87 1012.8
20260905052206 51 202 6.0 15.0 0.00 0.01 0.00 86 1012.8
20260905051705 51 212 6.0 11.0 0.00 0.01 0.00 86 1012.7
20260905051205 51 224 6.0 11.0 0.00 0.01 0.00 86 1012.8
20260905050704 51 206 6.0 11.0 0.00 0.01 0.00 86 1012.7
20260905050206 51 205 6.0 11.0 0.00 0.01 0.00 85 1012.7
20260905045705 51 219 5.0 12.0 0.00 0.01 0.00 85 1012.5
20260905044705 51 234 6.0 15.0 0.00 0.01 0.00 85 1012.4
20260905044204 51 239 7.0 15.0 0.00 0.01 0.00 85 1012.2
20260905043706 51 225 8.0 15.0 0.00 0.01 0.00 85 1012.2
20260905043205 51 234 7.0 15.0 0.00 0.01 0.00 86 1012.1
20260905042705 51 222 7.0 13.0 0.00 0.01 0.00 86 1012.1
20260905041705 51 221 7.0 16.0 0.00 0.01 0.00 86 1011.9
20260905040705 51 213 8.0 16.0 0.00 0.01 0.00 86 1011.8
20260905040204 51 222 7.0 13.0 0.00 0.01 0.00 85 1011.6
20260905035206 51 244 7.0 15.0 0.00 0.01 0.00 86 1011.6
20260905034705 52 243 7.0 18.0 0.00 0.01 0.00 86 1011.5
20260905034205 52 204 9.0 19.0 0.00 0.01 0.00 86 1011.4
20260905033704 51 211 9.0 19.0 0.00 0.02 0.00 86 1011.4
20260905033205 51 260 8.0 19.0 0.00 0.02 0.00 87 1011.3
20260905032704 51 214 7.0 17.0 0.00 0.02 0.00 87 1011.2
20260905032205 51 215 7.0 16.0 0.00 0.02 0.00 87 1011.3
20260905031705 51 194 7.0 14.0 0.00 0.02 0.00 87 1011.2
20260905031206 51 194 6.0 14.0 0.00 0.02 0.00 87 1011.1
20260905030220 51 211 7.0 16.0 0.00 0.02 0.00 87 1010.9
20260905025705 51 217 8.0 16.0 0.00 0.02 0.00 87 1010.8
20260905024205 51 216 7.0 12.0 0.00 0.02 0.00 86 1010.5
20260905023706 51 232 5.0 15.0 0.00 0.02 0.00 86 1010.4
20260905023204 51 237 5.0 15.0 0.00 0.02 0.00 86 1010.3
20260905022706 51 239 5.0 13.0 0.00 0.02 0.00 86 1010.2
20260905021705 51 283 6.0 13.0 0.00 0.02 0.00 87 1010.1
20260905021205 51 296 6.0 13.0 0.00 0.02 0.00 87 1010.1
20260905020704 51 255 6.0 13.0 0.00 0.02 0.00 87 1010.1
20260905020206 51 293 5.0 13.0 0.00 0.02 0.00 87 1010.0
20260905015206 51 217 5.0 17.0 0.00 0.02 0.00 87 1009.9
20260905014705 51 250 5.0 17.0 0.00 0.02 0.00 87 1009.9
20260905014204 51 254 5.0 17.0 0.00 0.02 0.00 88 1009.9
20260905013705 51 281 5.0 15.0 0.00 0.02 0.00 88 1009.9
20260905013205 51 171 4.0 12.0 0.00 0.02 0.00 88 1009.9
20260905012205 51 215 5.0 14.0 0.00 0.02 0.00 89 1009.8
20260905010706 52 242 5.0 12.0 0.00 0.02 0.00 89 1009.6
20260905010221 52 313 4.0 13.0 0.00 0.02 0.00 90 1009.6
20260905005731 52 234 5.0 13.0 0.00 0.02 0.00 90 1009.5
20260905005205 52 283 5.0 13.0 0.00 0.02 0.00 90 1009.5
20260905004705 52 267 5.0 14.0 0.00 0.02 0.00 90 1009.3
20260905004205 52 235 5.0 14.0 0.00 0.02 0.00 90 1009.2
20260905003705 52 213 5.0 13.0 0.00 0.02 0.00 90 1009.2
20260905002705 52 234 5.0 16.0 0.00 0.02 0.00 90 1009.1
20260905002205 52 232 5.0 16.0 0.00 0.02 0.00 90 1009.1
20260905001705 53 254 4.0 16.0 0.00 0.02 0.00 90 1008.9
20260905001205 53 232 4.0 11.0 0.00 0.02 0.00 91 1008.9
20260905000731 53 233 4.0 11.0 0.00 0.02 0.00 91 1008.8
20260905000205 53 322 4.0 11.0 0.00 0.02 0.00 91 1008.8
20260904235205 53 252 4.0 11.0 0.00 0.02 0.00 91 1008.5
20260904234705 53 270 4.0 10.0 0.00 0.02 0.00 91 1008.3
20260904234205 53 236 4.0 10.0 0.00 0.02 0.00 91 1008.2
20260904233705 53 202 4.0 10.0 0.00 0.02 0.00 91 1008.2
20260904233205 53 261 4.0 11.0 0.00 0.02 0.00 91 1008.2
20260904232705 53 238 5.0 11.0 0.00 0.02 0.00 91 1008.0
20260904232205 53 236 5.0 12.0 0.00 0.02 0.00 91 1007.9
20260904231705 54 229 5.0 12.0 0.00 0.03 0.00 91 1007.9
20260904231205 54 270 4.0 13.0 0.00 0.03 0.00 91 1008.0
20260904230705 54 236 5.0 20.0 0.00 0.03 0.00 91 1007.9
20260904230204 54 247 7.0 20.0 0.00 0.03 0.03 90 1007.8
20260904225705 54 197 6.0 20.0 0.00 0.03 0.03 90 1007.6
20260904225205 54 199 5.0 14.0 0.00 0.03 0.03 90 1007.6
20260904224705 54 216 4.0 14.0 0.00 0.03 0.03 90 1007.6
20260904224206 54 267 4.0 16.0 0.00 0.03 0.03 90 1007.5
20260904223705 54 216 6.0 16.0 0.00 0.03 0.03 90 1007.5
20260904223205 54 207 7.0 16.0 0.00 0.03 0.03 90 1007.6
20260904222205 54 281 5.0 15.0 0.00 0.03 0.03 90 1007.6
20260904221705 54 258 5.0 15.0 0.00 0.03 0.03 90 1007.4
20260904221207 54 271 5.0 14.0 0.00 0.03 0.03 90 1007.4
20260904220705 54 215 6.0 18.0 0.00 0.03 0.03 90 1007.4
20260904220205 54 220 5.0 18.0 0.00 0.03 0.03 90 1007.4
20260904215705 54 226 5.0 18.0 0.00 0.03 0.03 90 1007.4
20260904215205 54 236 5.0 14.0 0.00 0.03 0.03 90 1007.4
20260904214705 54 238 5.0 14.0 0.00 0.03 0.03 90 1007.4
20260904214206 54 260 5.0 14.0 0.00 0.03 0.03 89 1007.3
20260904213705 54 261 5.0 14.0 0.00 0.03 0.03 89 1007.2
20260904213207 54 255 4.0 12.0 0.00 0.03 0.03 89 1007.2
20260904212705 54 223 4.0 12.0 0.00 0.03 0.03 89 1007.2
20260904212204 54 201 4.0 12.0 0.00 0.04 0.03 89 1007.0
20260904211705 54 258 4.0 12.0 0.00 0.04 0.03 88 1007.2
20260904211205 54 245 5.0 13.0 0.00 0.04 0.03 88 1007.0
20260904210705 54 265 6.0 13.0 0.00 0.04 0.03 88 1006.9
20260904210205 54 208 5.0 13.0 0.00 0.04 0.03 88 1006.7
20260904205205 54 252 5.0 16.0 0.00 0.04 0.03 87 1006.5
20260904204704 54 248 6.0 16.0 0.00 0.04 0.03 88 1006.5
20260904204205 54 275 6.0 14.0 0.00 0.04 0.03 87 1006.5
20260904203705 54 274 5.0 14.0 0.00 0.04 0.03 87 1006.6
20260904203205 54 270 5.0 14.0 0.00 0.04 0.03 87 1006.5
20260904202705 54 216 5.0 15.0 0.00 0.04 0.03 86 1006.5
20260904202205 55 208 5.0 15.0 0.00 0.04 0.03 86 1006.5
20260904201705 55 197 5.0 16.0 0.00 0.04 0.03 86 1006.6
20260904201232 55 217 6.0 16.0 0.00 0.04 0.03 86 1006.5
20260904200705 55 199 6.0 20.0 0.00 0.04 0.03 86 1006.6
20260904200205 55 273 6.0 20.0 0.00 0.04 0.03 85 1006.6
20260904195705 55 244 5.0 20.0 0.00 0.04 0.03 85 1006.5
20260904194705 55 200 4.0 11.0 0.00 0.04 0.03 84 1006.5
20260904194205 55 208 4.0 11.0 0.00 0.04 0.03 83 1006.5
20260904193705 55 254 4.0 16.0 0.00 0.04 0.03 82 1006.4
20260904193205 55 244 5.0 16.0 0.00 0.04 0.03 82 1006.4
20260904192705 55 253 5.0 16.0 0.00 0.04 0.03 82 1006.4
20260904191705 56 229 5.0 15.0 0.00 0.04 0.03 81 1006.3
20260904190724 56 304 5.0 14.0 0.00 0.04 0.03 80 1006.1
20260904190205 56 277 5.0 12.0 0.00 0.04 0.03 80 1006.1
20260904185705 56 225 5.0 12.0 0.00 0.04 0.03 79 1005.9
20260904185205 57 227 5.0 12.0 0.00 0.04 0.03 79 1005.8
20260904184705 57 247 4.0 15.0 0.00 0.04 0.03 79 1005.7
20260904184205 57 206 5.0 15.0 0.00 0.04 0.03 78 1005.8